{"data":{"norad_id":63122,"intl_designator":"2025-039U","name":"STARLINK-32961","alt_names":[],"object_type":"PAYLOAD","status":"ACTIVE","operator":null,"country":"US","launch_date":"2025-02-27","launch_site_code":"AFETR","launch_vehicle":null,"mission":null,"orbit_class":"UNKNOWN","rcs_meters":null,"size_class":null,"mass_kg":null,"dimensions":null,"purposes":["comms"],"wikipedia_slug":null,"has_3d_model":false,"image_url":null,"decayed_at":null,"tle_current":{"epoch":"2026-09-21T07:27:48.801600Z","epoch_age_seconds":92230,"freshness":"FRESH","line1":"1 63122U 25039U   26264.31098150  .00015421  00000+0  56850-3 0  9999","line2":"2 63122  43.0017 348.0890 0002206 281.9799  78.0805 15.27592724 87982","mean_motion":15.27592724,"eccentricity":0.0002206,"inclination_deg":43.0017,"raan_deg":348.089,"arg_perigee_deg":281.9799,"mean_anomaly_deg":78.0805,"bstar":0.0005685,"rev_number":8798,"period_min":94.265963523927,"perigee_km":481.49742682275,"apogee_km":484.52456531861,"semimajor_km":6861.1479960707,"source":"CELESTRAK","updated_at":"2026-09-22T09:00:49.788894Z"}}}